Content
SEND FEEDBACK

Daily
Averages
Monthly
Summary
United States of America

YIGO, GUAM


Home > North America > United States > Guam
Elevation: 530 feet     Latitude: 13 32N     Longitude: 144 53E

WEATHER
 
SELECT A DAY
Number of Records: 209,379;   Date Range: 1/1/95 - 9/21/14
 
SHARE

PRINT THIS DATA

[ ← Previous Day ]
WEATHER ALMANAC - JUNE 30, 2013
[ Next Day → ]
[ °C ]   °F
We're sorry. There is no daily almanac available for Yigo, Guam on June 30, 2013.
WEATHER BY HOUR - JUNE 30, 2013
[ °C ]   °F
Local TimeTemperatureDewpointHumidityBarometerVisibilityWind DirectionWind SpeedGust SpeedPrecipitationEventsConditions
1:54 AM82.0 °F75.9 °F82 %29.85 in10.0 miENE (70°)3.5 mphPartly Cloudy
2:54 AM82.0 °F75.9 °F82 %29.84 in10.0 miNE (40°)3.5 mph0.00 inClear
3:54 AM80.1 °F75.0 °F85 %29.85 in10.0 miNorth (360°)3.5 mphClear
4:54 AM80.1 °F75.0 °F85 %29.85 in10.0 miCalmClear
5:54 AM81.0 °F75.0 °F82 %29.86 in10.0 miNE (50°)4.6 mphScattered Clouds
6:54 AM82.9 °F73.9 °F74 %29.87 in10.0 miCalmClear
7:54 AM86.0 °F75.9 °F72 %29.87 in10.0 miENE (60°)4.6 mphClear
8:32 AM86.0 °F75.2 °F70 %29.90 in10.0 miEast (90°)5.8 mphMostly Cloudy
8:46 AM87.8 °F75.2 °F66 %29.90 in10.0 miEast (100°)6.9 mphScattered Clouds
8:54 AM87.1 °F75.0 °F67 %29.88 in10.0 miEast (100°)8.1 mphScattered Clouds
9:54 AM88.0 °F75.0 °F65 %29.87 in10.0 miESE (110°)6.9 mphMostly Cloudy
10:54 AM88.0 °F75.0 °F65 %29.86 in10.0 miEast (90°)9.2 mphScattered Clouds
11:54 AM90.0 °F73.9 °F59 %29.84 in10.0 miEast (100°)11.5 mph16.1 mphScattered Clouds
12:54 PM88.0 °F75.0 °F65 %29.83 in10.0 miESE (110°)6.9 mphScattered Clouds
1:54 PM89.1 °F75.9 °F65 %29.82 in10.0 miESE (110°)8.1 mph17.3 mphScattered Clouds
2:54 PM89.1 °F75.9 °F65 %29.80 in10.0 miESE (110°)10.4 mphScattered Clouds
3:54 PM89.1 °F75.0 °F63 %29.80 in10.0 miEast (90°)9.2 mphScattered Clouds
4:54 PM86.0 °F75.9 °F72 %29.80 in10.0 miEast (80°)11.5 mph0.00 inScattered Clouds
5:54 PM86.0 °F75.9 °F72 %29.81 in10.0 miEast (90°)9.2 mphClear
6:54 PM82.9 °F77.0 °F82 %29.83 in10.0 miEast (80°)5.8 mph0.01 inPartly Cloudy
7:54 PM82.0 °F75.9 °F82 %29.85 in10.0 miESE (110°)6.9 mph0.00 inRainLight Rain
8:13 PM78.8 °F75.2 °F89 %29.88 in2.5 miENE (70°)12.7 mph16.1 mph0.07 inRainHeavy Rain
8:22 PM80.6 °F75.2 °F84 %29.88 in7.0 miNE (50°)8.1 mphRainLight Rain
8:54 PM79.0 °F73.9 °F84 %29.88 in10.0 miCalmClear
9:54 PM82.0 °F77.0 °F85 %29.88 in10.0 miCalmPartly Cloudy
10:54 PM82.0 °F77.0 °F85 %29.88 in10.0 miEast (80°)3.5 mphPartly Cloudy
11:54 PM80.1 °F75.9 °F87 %29.88 in2.5 miNE (50°)4.6 mph0.05 inRainHeavy Rain
Hourly data recorded from PGUM, located miles away from Yigo, Guam







STORIES FROM OUR PARTNERS